Change the Weather History Date:

Thursday, January 3, 2013

  Actual Average (KCLL) Record (KCLL)
Temperature  
Mean Temperature 42 °F 51 °F  
Max Temperature 51 °F 60 °F 83 °F (2009)
Min Temperature 32 °F 41 °F 12 °F (1911)
Degree Days  
Heating Degree Days 24 15  
Month to date heating degree days 45  
Since 1 July heating degree days 681  
Cooling Degree Days 0 0  
Month to date cooling degree days 0  
Year to date cooling degree days 0  
Moisture  
Dew Point 27 °F    
Average Humidity 56    
Maximum Humidity 87    
Minimum Humidity 30    
Precipitation  
Precipitation 0.04 in 0.10 in 2.52 in (1932)
Month to date precipitation 0.29  
Year to date precipitation 0.29  
Sea Level Pressure  
Sea Level Pressure 30.41 in    
Wind  
Wind Speed 0 mph (NNW)    
Max Wind Speed 12 mph    
Max Gust Speed -    
Visibility 7 miles    
Events      
T = Trace of Precipitation, MM = Missing Value Source: NWS Daily Summary

Daily Weather History Graph

Daily Weather History Graph

Search for Another Location

Airport or City:

Trip Planner

Search our weather history database for the weather conditions in past years. The results will help you decide how hot, cold, wet, or windy it might be!

Date:

Astronomy

Jan. 03, 2013 Rise Set
Actual Time 7:24 AM CST 5:37 PM CST
Civil Twilight 6:58 AM CST 6:04 PM CST
Nautical Twilight 6:28 AM CST 6:34 PM CST
Astronomical Twilight 5:59 AM CST 7:03 PM CST
Moon 11:45 PM CST (1/3) 11:03 AM CST (1/3)
Length of Visible Light 11h 05m
Length of Day
10h 12m
Waning Gibbous, 65% of the Moon is Illuminated
Jan 3
Waning Gibbous
Jan 4
Last Quarter
Jan 11
New
Jan 18
First Quarter
Jan 26
Full

Hourly Weather History & Observations

Time (CST) Temp. Dew Point Humidity Pressure Visibility Wind Dir Wind Speed Gust Speed Precip Events Conditions
12:15 AM 35.6 °F 30.2 °F 81% 30.35 in 7.0 mi Calm Calm - N/A   Clear
12:35 AM 35.6 °F 28.4 °F 75% 30.34 in 7.0 mi Calm Calm - N/A   Clear
12:55 AM 35.6 °F 30.2 °F 81% 30.34 in 7.0 mi Calm Calm - N/A   Clear
1:15 AM 35.6 °F 30.2 °F 81% 30.34 in 5.0 mi Calm Calm - N/A   Haze
1:35 AM 33.8 °F 28.4 °F 81% 30.34 in 5.0 mi Calm Calm - N/A   Haze
1:55 AM 32.0 °F 26.6 °F 80% 30.35 in 5.0 mi Calm Calm - N/A   Haze
2:15 AM 33.8 °F 28.4 °F 81% 30.35 in 5.0 mi Calm Calm - N/A   Haze
2:35 AM 32.0 °F 26.6 °F 80% 30.35 in 5.0 mi Calm Calm - N/A   Haze
2:55 AM 32.0 °F 26.6 °F 80% 30.35 in 4.0 mi Calm Calm - N/A   Haze
3:15 AM 33.8 °F 28.4 °F 81% 30.36 in 5.0 mi Calm Calm - 0.01 in   Haze
3:35 AM 32.0 °F 26.6 °F 80% 30.36 in 4.0 mi Calm Calm - 0.01 in   Haze
3:55 AM 32.0 °F 26.6 °F 80% 30.36 in 4.0 mi Calm Calm - 0.01 in   Haze
4:15 AM 32.0 °F 26.6 °F 80% 30.36 in 4.0 mi Calm Calm - N/A   Haze
4:35 AM 32.0 °F 26.6 °F 80% 30.37 in 4.0 mi Calm Calm - N/A   Haze
4:55 AM 32.0 °F 26.6 °F 80% 30.37 in 4.0 mi Calm Calm - N/A   Haze
5:15 AM 32.0 °F 26.6 °F 80% 30.37 in 4.0 mi Calm Calm - N/A   Haze
5:35 AM 32.0 °F 26.6 °F 80% 30.37 in 4.0 mi Calm Calm - N/A   Haze
5:55 AM 32.0 °F 26.6 °F 80% 30.38 in 4.0 mi Calm Calm - N/A   Haze
6:15 AM 32.0 °F 26.6 °F 80% 30.39 in 4.0 mi Calm Calm - N/A   Haze
6:35 AM 32.0 °F 26.6 °F 80% 30.39 in 4.0 mi Calm Calm - N/A   Haze
6:55 AM 33.8 °F 28.4 °F 81% 30.40 in 4.0 mi Calm Calm - N/A   Haze
7:15 AM 33.8 °F 28.4 °F 81% 30.41 in 5.0 mi Calm Calm - N/A   Haze
7:35 AM 32.0 °F 28.4 °F 87% 30.43 in 4.0 mi Calm Calm - N/A   Haze
7:55 AM 33.8 °F 28.4 °F 81% 30.44 in 3.0 mi Calm Calm - N/A   Haze
8:15 AM 33.8 °F 28.4 °F 81% 30.44 in 3.0 mi Calm Calm - 0.01 in   Haze
8:35 AM 33.8 °F 30.2 °F 87% 30.44 in 3.0 mi Calm Calm - 0.01 in   Haze
8:55 AM 35.6 °F 30.2 °F 81% 30.44 in 4.0 mi Calm Calm - 0.01 in   Haze
9:15 AM 37.4 °F 30.2 °F 75% 30.45 in 4.0 mi Calm Calm - N/A   Haze
9:35 AM 37.4 °F 30.2 °F 75% 30.46 in 5.0 mi Calm Calm - N/A   Haze
9:55 AM 41.0 °F 30.2 °F 65% 30.46 in 5.0 mi Calm Calm - N/A   Haze
10:15 AM 42.8 °F 30.2 °F 61% 30.46 in 5.0 mi Calm Calm - N/A   Haze
10:35 AM 44.6 °F 28.4 °F 53% 30.45 in 7.0 mi Calm Calm - N/A   Clear
10:55 AM 46.4 °F 28.4 °F 50% 30.45 in 7.0 mi Calm Calm - N/A   Clear
11:15 AM 48.2 °F 26.6 °F 43% 30.44 in 7.0 mi Calm Calm - N/A   Clear
11:35 AM 50.0 °F 26.6 °F 40% 30.44 in 7.0 mi Calm Calm - N/A   Clear
11:55 AM 50.0 °F 26.6 °F 40% 30.44 in 7.0 mi Calm Calm - N/A   Clear
12:15 PM 51.8 °F 24.8 °F 35% 30.41 in 10.0 mi Calm Calm - N/A   Clear
12:35 PM 51.8 °F 24.8 °F 35% 30.41 in 10.0 mi Calm Calm - N/A   Clear
12:55 PM 51.8 °F 21.2 °F 30% 30.40 in 10.0 mi Calm Calm - N/A   Clear
1:15 PM 51.8 °F 21.2 °F 30% 30.40 in 10.0 mi Calm Calm - N/A   Mostly Cloudy
1:35 PM 51.8 °F 23.0 °F 33% 30.40 in 10.0 mi Calm Calm - N/A   Overcast
1:55 PM 51.8 °F 24.8 °F 35% 30.39 in 10.0 mi Calm Calm - N/A   Overcast
2:15 PM 50.0 °F 28.4 °F 43% 30.39 in 10.0 mi Calm Calm - N/A   Overcast
2:35 PM 50.0 °F 26.6 °F 40% 30.39 in 10.0 mi Calm Calm - N/A   Overcast
2:55 PM 51.8 °F 24.8 °F 35% 30.38 in 10.0 mi Calm Calm - N/A   Overcast
3:15 PM 51.8 °F 23.0 °F 33% 30.39 in 10.0 mi NNW 11.5 mph - 0.01 in   Overcast
3:35 PM 51.8 °F 23.0 °F 33% 30.39 in 10.0 mi Calm Calm - 0.01 in   Overcast
3:55 PM 51.8 °F 23.0 °F 33% 30.40 in 10.0 mi NNW 9.2 mph - 0.01 in   Overcast
4:15 PM 51.8 °F 23.0 °F 33% 30.40 in 10.0 mi Calm Calm - N/A   Overcast
4:35 PM 51.8 °F 24.8 °F 35% 30.40 in 10.0 mi Calm Calm - N/A   Overcast
4:55 PM 50.0 °F 26.6 °F 40% 30.41 in 10.0 mi Calm Calm - N/A   Overcast
5:15 PM 50.0 °F 26.6 °F 40% 30.40 in 10.0 mi Calm Calm - N/A   Overcast
5:35 PM 50.0 °F 26.6 °F 40% 30.41 in 10.0 mi Calm Calm - N/A   Overcast
5:55 PM 50.0 °F 26.6 °F 40% 30.42 in 10.0 mi Calm Calm - N/A   Overcast
6:15 PM 50.0 °F 26.6 °F 40% 30.42 in 10.0 mi Calm Calm - N/A   Overcast
6:35 PM 50.0 °F 28.4 °F 43% 30.43 in 10.0 mi Calm Calm - N/A   Overcast
6:55 PM 50.0 °F 28.4 °F 43% 30.42 in 10.0 mi Calm Calm - N/A   Overcast
7:15 PM 50.0 °F 28.4 °F 43% 30.42 in 10.0 mi Calm Calm - N/A   Overcast
7:35 PM 50.0 °F 30.2 °F 47% 30.44 in 10.0 mi Calm Calm - N/A   Overcast
7:55 PM 48.2 °F 30.2 °F 50% 30.44 in 10.0 mi Calm Calm - N/A   Overcast
8:15 PM 48.2 °F 30.2 °F 50% 30.44 in 10.0 mi Calm Calm - N/A   Overcast
8:35 PM 50.0 °F 28.4 °F 43% 30.44 in 10.0 mi Calm Calm - N/A   Overcast
8:55 PM 50.0 °F 26.6 °F 40% 30.44 in 10.0 mi Calm Calm - N/A   Overcast
9:15 PM 50.0 °F 26.6 °F 40% 30.43 in 10.0 mi Calm Calm - N/A   Overcast
9:35 PM 50.0 °F 24.8 °F 37% 30.43 in 10.0 mi Calm Calm - N/A   Overcast
9:55 PM 50.0 °F 24.8 °F 37% 30.41 in 10.0 mi Calm Calm - N/A   Overcast
10:15 PM 50.0 °F 23.0 °F 35% 30.43 in 10.0 mi Calm Calm - 0.01 in   Overcast
10:35 PM 50.0 °F 23.0 °F 35% 30.43 in 10.0 mi Calm Calm - 0.01 in   Overcast
10:55 PM 50.0 °F 24.8 °F 37% 30.44 in 10.0 mi Calm Calm - 0.01 in   Overcast
11:15 PM 50.0 °F 24.8 °F 37% 30.43 in 10.0 mi Calm Calm - N/A   Overcast
11:35 PM 50.0 °F 23.0 °F 35% 30.43 in 10.0 mi Calm Calm - N/A   Overcast
11:55 PM 50.0 °F 23.0 °F 35% 30.42 in 10.0 mi Calm Calm - N/A   Overcast